When you browse on this site, cookies collect data to enhance your experience and personalize the content and advertising you see.
Visit our Privacy Policy to learn more. By continuing to use the site, you agree to this use of cookies and data.
  • In Switzerland
  • List of Countries
  • For 7 days
  • Water Temperature
  • Weather Map
  • Weather Widgets
  • user-avatar
    Login

    Hourly Weather Kerns

    Today, 30 May, Saturday

    Time Temperature Precipitation Wind Pressure Humidity
    00:00 +18°C° 0 mm 4 mps 763 mmHg 87%
    01:00 +17°C° 0 mm 4 mps 763 mmHg 87%
    02:00 +17°C° 0 mm 4 mps 763 mmHg 88%
    03:00 +17°C° 0 mm 4 mps 763 mmHg 90%
    04:00 +17°C° 0 mm 3 mps 762 mmHg 92%
    05:00 +17°C° 0 mm 3 mps 763 mmHg 93%
    06:00 +18°C° 0 mm 3 mps 763 mmHg 94%
    07:00 +18°C° 0 mm 3 mps 763 mmHg 95%
    08:00 +20°C° 0 mm 4 mps 763 mmHg 85%
    09:00 +23°C° 0 mm 4 mps 764 mmHg 74%
    10:00 +26°C° 0 mm 4 mps 764 mmHg 63%
    11:00 +27°C° 0 mm 5 mps 763 mmHg 61%
    12:00 +28°C° 0 mm 5 mps 763 mmHg 59%
    13:00 +29°C° 0 mm 5 mps 762 mmHg 57%
    14:00 +28°C° 0 mm 5 mps 762 mmHg 59%
    15:00 +28°C° 0 mm 5 mps 761 mmHg 62%
    16:00 +27°C° 0 mm 5 mps 761 mmHg 66%
    17:00 +25°C° 0 mm 5 mps 761 mmHg 75%
    18:00 +22°C° 0 mm 4 mps 762 mmHg 85%
    19:00 +21°C° 0 mm 4 mps 762 mmHg 94%
    20:00 +20°C° 0 mm 4 mps 762 mmHg 95%
    21:00 +20°C° 0 mm 3 mps 763 mmHg 96%
    22:00 +20°C° 0 mm 3 mps 763 mmHg 96%
    23:00 +20°C° 0 mm 3 mps 763 mmHg 96%

    Tomorrow, 31 May, Sunday

    Time Temperature Precipitation Wind Pressure Humidity
    00:00 +20°C° 0 mm 3 mps 763 mmHg 96%
    01:00 +19°C° 0 mm 3 mps 763 mmHg 97%
    02:00 +20°C° 0 mm 3 mps 762 mmHg 97%
    03:00 +20°C° 0 mm 3 mps 762 mmHg 97%
    04:00 +20°C° 0 mm 3 mps 762 mmHg 97%
    05:00 +20°C° 0.1 mm 3 mps 762 mmHg 97%
    06:00 +20°C° 0.1 mm 3 mps 762 mmHg 98%
    07:00 +21°C° 0.1 mm 3 mps 763 mmHg 98%
    08:00 +24°C° 0.1 mm 3 mps 762 mmHg 90%
    09:00 +26°C° 0.1 mm 4 mps 762 mmHg 82%
    10:00 +28°C° 0.1 mm 4 mps 762 mmHg 74%
    11:00 +28°C° 0.1 mm 4 mps 762 mmHg 72%
    12:00 +29°C° 0.1 mm 4 mps 761 mmHg 70%
    13:00 +29°C° 0.1 mm 4 mps 761 mmHg 68%
    14:00 +28°C° 0.1 mm 4 mps 761 mmHg 71%
    15:00 +28°C° 0.1 mm 5 mps 761 mmHg 75%
    16:00 +27°C° 0.1 mm 5 mps 760 mmHg 78%
    17:00 +26°C° 0.1 mm 4 mps 761 mmHg 85%
    18:00 +23°C° 0.1 mm 4 mps 761 mmHg 91%
    19:00 +22°C° 0.1 mm 4 mps 761 mmHg 97%
    20:00 +22°C° 0 mm 4 mps 762 mmHg 98%
    21:00 +21°C° 0 mm 4 mps 762 mmHg 98%
    22:00 +21°C° 0 mm 3 mps 762 mmHg 98%
    23:00 +21°C° 0.1 mm 3 mps 762 mmHg 98%

    Day after tomorrow, 1 June, Monday

    Time Temperature Precipitation Wind Pressure Humidity
    00:00 +21°C° 0.1 mm 3 mps 762 mmHg 97%
    01:00 +21°C° 0.1 mm 3 mps 762 mmHg 97%
    02:00 +21°C° 0 mm 2 mps 761 mmHg 97%
    03:00 +21°C° 0 mm 2 mps 761 mmHg 97%
    04:00 +20°C° 0 mm 2 mps 761 mmHg 96%
    05:00 +20°C° 0 mm 2 mps 761 mmHg 96%
    06:00 +20°C° 0 mm 2 mps 761 mmHg 97%
    07:00 +20°C° 0 mm 2 mps 762 mmHg 97%
    08:00 +22°C° 0 mm 3 mps 762 mmHg 88%
    09:00 +25°C° 0 mm 3 mps 762 mmHg 78%
    10:00 +28°C° 0 mm 3 mps 762 mmHg 69%
    11:00 +28°C° 0.1 mm 3 mps 762 mmHg 67%
    12:00 +28°C° 0.1 mm 4 mps 761 mmHg 66%
    13:00 +29°C° 0.1 mm 4 mps 761 mmHg 64%
    14:00 +28°C° 0.1 mm 4 mps 760 mmHg 69%
    15:00 +27°C° 0.1 mm 4 mps 760 mmHg 73%
    16:00 +26°C° 0.1 mm 4 mps 760 mmHg 78%
    17:00 +25°C° 0 mm 4 mps 760 mmHg 84%
    18:00 +24°C° 0 mm 3 mps 761 mmHg 90%
    19:00 +21°C° 0 mm 3 mps 761 mmHg 96%
    20:00 +21°C° 0 mm 3 mps 762 mmHg 97%
    21:00 +21°C° 0 mm 3 mps 762 mmHg 97%
    22:00 +20°C° 0 mm 3 mps 762 mmHg 98%
    23:00 +20°C° 0 mm 2 mps 762 mmHg 98%

    2 June, Tuesday

    Time Temperature Precipitation Wind Pressure Humidity
    00:00 +20°C° 0 mm 2 mps 762 mmHg 98%
    01:00 +19°C° 0 mm 2 mps 762 mmHg 98%
    02:00 +19°C° 0 mm 2 mps 761 mmHg 97%
    03:00 +19°C° 0 mm 2 mps 761 mmHg 97%
    04:00 +19°C° 0 mm 2 mps 761 mmHg 96%
    05:00 +18°C° 0 mm 2 mps 761 mmHg 96%
    06:00 +18°C° 0 mm 2 mps 762 mmHg 96%
    07:00 +18°C° 0 mm 3 mps 762 mmHg 96%
    08:00 +21°C° 0 mm 3 mps 762 mmHg 83%
    09:00 +24°C° 0 mm 3 mps 762 mmHg 70%
    10:00 +27°C° 0 mm 4 mps 763 mmHg 58%
    11:00 +27°C° 0 mm 4 mps 762 mmHg 53%
    12:00 +28°C° 0 mm 5 mps 762 mmHg 48%
    13:00 +29°C° 0 mm 5 mps 761 mmHg 43%
    14:00 +28°C° 0 mm 5 mps 761 mmHg 45%
    15:00 +28°C° 0 mm 5 mps 761 mmHg 46%
    16:00 +27°C° 0 mm 6 mps 761 mmHg 48%
    17:00 +25°C° 0 mm 5 mps 761 mmHg 56%
    18:00 +22°C° 0 mm 5 mps 761 mmHg 64%
    19:00 +19°C° 0 mm 5 mps 762 mmHg 72%
    20:00 +19°C° 0 mm 5 mps 762 mmHg 75%
    21:00 +17°C° 0 mm 5 mps 763 mmHg 77%
    22:00 +18°C° 0 mm 4 mps 763 mmHg 80%
    23:00 +17°C° 0 mm 4 mps 763 mmHg 82%

    3 June, Wednesday

    Time Temperature Precipitation Wind Pressure Humidity
    00:00 +17°C° 0 mm 4 mps 762 mmHg 83%
    01:00 +17°C° 0 mm 4 mps 762 mmHg 85%
    02:00 +17°C° 0 mm 4 mps 762 mmHg 87%
    03:00 +17°C° 0 mm 4 mps 762 mmHg 89%
    04:00 +17°C° 0 mm 5 mps 761 mmHg 90%
    05:00 +17°C° 0 mm 5 mps 762 mmHg 91%
    06:00 +17°C° 0 mm 5 mps 762 mmHg 92%
    07:00 +17°C° 0 mm 5 mps 763 mmHg 93%
    08:00 +20°C° 0 mm 6 mps 763 mmHg 84%
    09:00 +23°C° 0 mm 6 mps 763 mmHg 75%
    10:00 +26°C° 0 mm 7 mps 763 mmHg 66%
    11:00 +26°C° 0.1 mm 7 mps 763 mmHg 65%
    12:00 +27°C° 0.1 mm 7 mps 762 mmHg 65%
    13:00 +27°C° 0.1 mm 7 mps 762 mmHg 64%
    14:00 +27°C° 0.1 mm 7 mps 762 mmHg 67%
    15:00 +26°C° 0.1 mm 7 mps 761 mmHg 70%
    16:00 +24°C° 0.1 mm 7 mps 761 mmHg 72%
    17:00 +23°C° 0 mm 7 mps 761 mmHg 79%
    18:00 +21°C° 0 mm 6 mps 762 mmHg 85%
    19:00 +19°C° 0 mm 6 mps 762 mmHg 92%
    20:00 +19°C° 0 mm 5 mps 763 mmHg 93%
    21:00 +19°C° 0 mm 5 mps 763 mmHg 94%
    22:00 +19°C° 0 mm 5 mps 763 mmHg 95%
    23:00 +19°C° 0 mm 5 mps 763 mmHg 95%

    4 June, Thursday

    Time Temperature Precipitation Wind Pressure Humidity
    00:00 +19°C° 0 mm 5 mps 763 mmHg 95%
    01:00 +19°C° 0 mm 5 mps 762 mmHg 95%
    02:00 +19°C° 0 mm 5 mps 762 mmHg 95%
    03:00 +19°C° 0 mm 6 mps 762 mmHg 95%
    04:00 +19°C° 0 mm 6 mps 761 mmHg 94%
    05:00 +19°C° 0 mm 6 mps 762 mmHg 94%
    06:00 +19°C° 0 mm 6 mps 762 mmHg 93%
    07:00 +19°C° 0 mm 6 mps 762 mmHg 92%
    08:00 +20°C° 0.1 mm 6 mps 763 mmHg 86%
    09:00 +22°C° 0.1 mm 6 mps 763 mmHg 81%
    10:00 +23°C° 0.1 mm 6 mps 763 mmHg 75%
    11:00 +24°C° 0 mm 7 mps 763 mmHg 70%
    12:00 +26°C° 0 mm 7 mps 762 mmHg 66%
    13:00 +28°C° 0 mm 7 mps 762 mmHg 61%
    14:00 +27°C° 0 mm 7 mps 761 mmHg 64%
    15:00 +26°C° 0 mm 7 mps 761 mmHg 67%
    16:00 +26°C° 0 mm 7 mps 761 mmHg 70%
    17:00 +24°C° 0 mm 6 mps 761 mmHg 75%
    18:00 +22°C° 0 mm 6 mps 762 mmHg 81%
    19:00 +21°C° 0 mm 5 mps 763 mmHg 87%
    20:00 +21°C° 0.1 mm 6 mps 763 mmHg 89%
    21:00 +21°C° 0.1 mm 6 mps 763 mmHg 91%
    22:00 +21°C° 0.1 mm 6 mps 763 mmHg 93%
    23:00 +21°C° 0.1 mm 6 mps 763 mmHg 93%
    Show more